Regional Weather Roundup
Issued by NWS

Home | Current Version | Previous Version | Text Only | Print | Product List | Glossary Off
Versions: 1 2 3 4 5 6 7 8 9 10 11 12 13 14 15 16 17 18 19 20 21 22 23 24 25 26 27 28 29 30 31 32 33 34 35 36 37 38 39 40 41 42 43 44 45 46 47 48 49 50

000
ASUS43 KMPX 182210
RWRMN
WEATHER ROUNDUP FOR MINNESOTA
NATIONAL WEATHER SERVICE TWIN CITIES/CHANHASSEN MN
400 PM CST SAT FEB 18 2017


NOTE: "FAIR" INDICATES FEW OR NO CLOUDS BELOW 12,000 FEET WITH NO
SIGNIFICANT WEATHER AND/OR OBSTRUCTIONS TO VISIBILITY. N/A MEANS
CURRENT SKY AND/OR WEATHER CONDITIONS ARE NOT AVAILABLE.

MNZ060>063-068>070-182300-
   Twin Cities Metro

CITY           SKY/WX    TMP DP  RH WIND       PRES   REMARKS
TWIN CITIES    PTSUNNY   58  35  42 W9        29.78R
ST PAUL        SUNNY     57  36  45 S10       29.78R
CRYSTAL        MOSUNNY   58  29  33 W9        29.77R
BLAINE         PTSUNNY   59  34  38 W7        29.77R
LAKEVILLE      SUNNY     55  37  50 W5        29.78S
EDEN PRAIRIE   SUNNY     57  37  47 W7        29.78R
SOUTH ST PAUL  SUNNY     57  34  41 W8        29.78R
LAKE ELMO      FAIR      57  34  41 W6        29.78S
$$
MNZ001>005-007-008-013>017-022>024-027-028-182300-
   Northwest Minnesota

CITY           SKY/WX    TMP DP  RH WIND       PRES   REMARKS
BEMIDJI        CLOUDY    42  32  69 W12       29.73R
HALLOCK        CLOUDY    37  34  87 CALM      29.74R
ROSEAU         SUNNY     41  34  75 W8G17     29.71R
WARROAD        SUNNY     43  34  70 W13       29.69R
THIEF RVR FALL CLOUDY    37  32  82 W7        29.75R
CROOKSTON      CLOUDY    39  36  87 W7        29.76S
FOSSTON        CLOUDY    39  34  81 SW8       29.76R
DETROIT LAKES  MOSUNNY   45  36  70 W6        29.76R
MOORHEAD       MOSUNNY   45  37  76 S3        29.77S
PARK RAPIDS    CLOUDY    44  31  60 W6        29.73R
MAHNOMEN       FAIR      39  36  87 SW5       29.75S
$$
MNZ006-009>011-018-025>026-182300-
   North Central Minnesota

CITY           SKY/WX    TMP DP  RH WIND       PRES   REMARKS
BAUDETTE       MOSUNNY   43  30  60 W10       29.67R
FLAG ISLAND    SUNNY     45  28  53 W16G22    29.65R
INTL FALLS     MOSUNNY   50  32  50 W10       29.65R
WASKISH        PTSUNNY   39  34  81 SW13      29.72R
BIG FORK       PTSUNNY   48  32  53 W8        29.70R
LONGVILLE      CLOUDY    48  30  49 SW5       29.72R
GRAND RAPIDS   CLOUDY    50  29  44 W7        29.72R
CRANE LAKE     SUNNY     52  28  40 W12G20    29.65R
ORR            SUNNY     48  28  46 W8G17     29.64R
COOK           SUNNY     48  30  49 W14G22    29.67R
WALKER         FAIR      50  28  42 W9        29.72R
$$
MNZ012-019>021-037-182300-
   Northeast Minnesota

CITY           SKY/WX    TMP DP  RH WIND       PRES   REMARKS
DULUTH         CLOUDY    48  32  53 W9        29.68R
ELY            SUNNY     50  28  43 W18G25    29.64R
HIBBING        CLOUDY    49  29  46 VRB7      29.68R
EVELETH        MOSUNNY   49  28  42 W9        29.69R
DULUTH HARBOR  MOSUNNY   48  34  57 CALM      29.70R
TWO HARBORS    SUNNY     55  36  47 W8        29.66R
GRAND MARAIS     N/A     44  35  70 W13       29.61R
G MARAIS ARPRT SUNNY     48  28  46 SW15G22   29.61R
$$
MNZ029>031-032-039>041-046>048-054>057-064-182300-
   West Central Minnesota

CITY           SKY/WX    TMP DP  RH WIND       PRES   REMARKS
FERGUS FALLS   CLOUDY    46  39  76 CALM      29.80S
WHEATON        CLOUDY    48  43  81 S5        29.78R
MORRIS         CLOUDY    48  43  81 SE3       29.76S
ALEXANDRIA     CLOUDY    48  40  73 CALM      29.77S
ELBOW LAKE     FAIR      47  42  82 CALM      29.77S
WADENA         CLOUDY    46  36  66 SW7       29.75S
GLENWOOD       CLOUDY    46  41  81 S5        29.78S
APPLETON       CLOUDY    52  39  62 E5        29.76S
BENSON         CLOUDY    54  36  50 CALM      29.79S
ORTONVILLE       N/A     52  41  66 CALM      29.76S
WILLMAR        FAIR      52  45  76 CALM      29.79S
$$
MNZ033>034-036-042>043-049>051-058-059-182300-
   Central Minnesota

CITY           SKY/WX    TMP DP  RH WIND       PRES   REMARKS
ST CLOUD       CLOUDY    52  40  63 SW9       29.77R
SAUK CENTRE    FAIR      48  40  75 CALM      29.77F
PAYNESVILLE    CLOUDY    50  40  69 SW3       29.78F
AITKIN         CLOUDY    54  25  32 SW6       29.73R
PINE RIVER     CLOUDY    50  32  50 W6        29.78R
BRAINERD       PTSUNNY   51  31  46 W9        29.75R
STAPLES        PTSUNNY   45  36  70 W6        29.76R
LONG PRAIRIE   FAIR      45  37  76 S3        29.77S
LITTLE FALLS   CLOUDY    52  36  54 SW5       29.77R
LITCHFIELD     MOSUNNY   54  43  66 CALM      29.79S
BUFFALO        MOSUNNY   54  37  53 W5        29.79S
MAPLE LAKE     CLOUDY    54  41  62 SW3       29.80R
HUTCHINSON     CLOUDY    55  44  67 W3        29.80R
$$
MNZ037-044-045-052-053-182300-
   East Central Minnesota

CITY           SKY/WX    TMP DP  RH WIND       PRES   REMARKS
PRINCETON      PTSUNNY   55  37  50 CALM      29.77R
MORA           MOSUNNY   54  32  43 W6        29.77R
CAMBRIDGE      CLOUDY    55  37  50 W5        29.75R
RUSH CITY      MOSUNNY   54  34  47 W6        29.76R
MOOSE LAKE     CLOUDY    52  30  43 W7        29.71R
HINCKLEY       FAIR      55  32  41 W6        29.75R
CLOQUET        CLOUDY    48  28  46 SW8       29.71R
MCGREGOR       CLOUDY    52  30  43 SW5       29.73R
$$
MNZ071>073-080-081-089-090-097-098-182300-
   Southwest Minnesota

CITY           SKY/WX    TMP DP  RH WIND       PRES   REMARKS
MONTEVIDEO     CLOUDY    54  43  66 CALM      29.79R
GRANITE FALLS  CLOUDY    56  41  57 CALM      29.80R
CANBY          CLOUDY    56  43  60 CALM      29.78R
REDWOOD FALLS  MOSUNNY   57  39  51 SE3       29.78R
OLIVIA         CLOUDY    54  41  62 CALM      29.78R
PIPESTONE      MOSUNNY   59  36  41 S8        29.77R
WINDOM         SUNNY     57  37  47 E5        29.79S
WORTHINGTON    SUNNY     57  39  51 SE8       29.79S
JACKSON        SUNNY     55  37  50 E3        29.80S
TRACY          MOSUNNY   58  42  54 SE5       29.78R
SLAYTON        MOSUNNY   57  40  53 SE8       29.79R
$$
MNZ065>067-074>077-082>085-091>093-182300-
   South Central Minnesota

CITY           SKY/WX    TMP DP  RH WIND       PRES   REMARKS
MANKATO          N/A     57  37  47 NW5       29.80R
NEW ULM        SUNNY     55  37  50 CALM      29.79S
ST JAMES       SUNNY     55  39  54 CALM      29.81R
FAIRMONT       SUNNY     57  41  55 CALM      29.80R
GLENCOE        SUNNY     56  43  61 CALM      29.79R
FARIBAULT      SUNNY     55  37  50 CALM      29.80S
OWATONNA       SUNNY     55  37  50 CALM      29.79S
WASECA         SUNNY     55  41  58 CALM      29.81R
ALBERT LEA     SUNNY     55  43  62 CALM      29.79S
$$
MNZ078>079-086>088-094>096-182300-
   Southeast Minnesota

CITY           SKY/WX    TMP DP  RH WIND       PRES   REMARKS
ROCHESTER      SUNNY     54  40  59 W3        29.79S
RED WING       SUNNY     57  34  41 W5        29.78R
STANTON        SUNNY     56  38  49 W5        29.78R
DODGE CENTER   SUNNY     55  39  54 CALM      29.79S
WINONA         SUNNY     57  34  41 N5        29.78R
AUSTIN         SUNNY     55  39  54 CALM      29.79S
PRESTON        SUNNY     52  41  65 W5        29.79S
$$
ABBREVIATIONS USED IN REMARKS
   TC - TEMPERATURES IN CELSIUS
  WCI - WIND CHILL INDEX
   HX - HEAT INDEX
  VSB - VISIBILITY
$$




USA.gov is the U.S. government's official web portal to all federal, state and local government web resources and services.